Location: Penum?ka
(16.4840°N, 80.5772°E)
Time: 01:13:04
(UTC+00:00)

USA 234 - Pass Details

Date: 19 May 2025
Orbit: 1097 x 1111 km, 123.0° (Epoch: 19 June)

Event Time Altitude Azimuth Distance (km) Brightness Sun altitude
Rises 13:50:49 0° 34° (NE) 3,920 6.1 -11.5°
Reaches altitude 10° 13:53:18 10° 33° (NNE) 2,963 5.4 -12.0°
Maximum altitude 13:59:50 76° 309° (NW) 1,138 3.5 -13.4°
Drops below altitude 10° 14:06:23 10° 224° (SW) 2,966 5.7 -14.8°
Sets 14:08:52 0° 222° (SW) 3,924 6.4 -15.4°
